Weather in Análipsis

Greece     38°29′40″N   21°42′24″E
temp.,
°C
wind,
m/s
gust,
m/s
humid.,
%
clouds,
%
prec.,
mm/h
press.,
hPa
HPBL,
m
9 may, sun
sun900:00+17ene22654 0.0 101427
03:00+15ene337083 0.0 101655
06:00+13ene347711 0.0 101791
09:00+18ese34626 0.0 1019668
12:00+22se44464 0.0 10191056
15:00+22sse44447 0.0 1020972
18:00+19se325286 0.0 1020474
21:00+14ese23650 0.0 1022106
10 may, mon
mon1000:00+12ene23740 0.0 102265
03:00+11ene23750 0.0 102159
06:00+10ene33710 0.0 102161
09:00+16ese23490 0.0 1021445
12:00+22sse33371 0.0 10191031
15:00+23sse433836 0.0 10181053
18:00+20sse33495 0.0 1018489
21:00+14e226611 0.0 101824
11 may, tue
tue1100:00+13ene22736 0.0 101933
03:00+12ene22720 0.0 101726
06:00+11ene22670 0.0 101729
09:00+17ese22430 0.0 1016351
12:00+23sse32310 0.0 1015919
15:00+24s323045 0.0 10141092
18:00+22s32360 0.0 1013649
21:00+15ne01625 0.0 101410
12 may, wed
wed1200:00+14nnw116375 0.0 101411
03:00+13n22680 0.0 101212
06:00+13n2171100 0.0 101112
09:00+18wsw2258100 0.0 1012310
12:00+23sw34390 0.0 10111217
15:00+23ssw45340 0.0 10101481
18:00+21ssw34410 0.0 10101071
21:00+13sw11810 0.0 101117
13 may, thu
thu1300:00+12nnw11966 0.0 101118
03:00+11nnw119622 0.0 101120
06:00+13wnw128796 0.0 1011345
09:00+16w126725 0.0 1011574
12:00+20sw34475 0.0 10111459
15:00+21sw45425 0.0 10111674
18:00+19sw45528 0.0 10111389
21:00+13wsw11882 0.1 101318